Location: Bessat
(45.8735°N, 1.9924°E)
Time: 08:22:56
(UTC+00:00)

Cosmos 1844 Rocket - Pass Details

Date: 11 May 2021
Orbit: 823 x 846 km, 71.0° (Epoch: 20 June)

Event Time Altitude Azimuth Distance (km) Brightness Sun altitude
Rises 20:20:33 0° 223° (SW) 3,348 5.9 -10.6°
Reaches altitude 10° 20:23:04 10° 230° (SW) 2,420 5.2 -11.0°
Maximum altitude 20:28:23 46° 303° (WNW) 1,098 3.9 -11.7°
Drops below altitude 10° 20:33:46 10° 17° (NNE) 2,444 5.5 -12.4°
Sets 20:36:19 0° 23° (NNE) 3,384 6.1 -12.7°
